QPF
0.00 0.00 0.00 0.00 0.00 0.00 0.00 0.00 0.00 0.00 0.00 0.00 0.00 0.00 0.00 0.00 0.01 0.03 0.00 0.00 0.00 0.00 0.00 0.00 0.01 0.01 0.01 0.01 0.01 0.00 0.01 0.01 0.01 0.01 0.01 0.01 0.01 0.01 0.01 0.01 0.01 0.02 0.01 0.01 0.00 0.00 0.00 0.00 0.00
0.00 0.00 0.00 0.00 0.00 0.00 0.00 0.00 0.00 0.00 0.00 0.00 0.00 0.00 0.00 0.00 0.00 0.00 0.00 0.00 0.00 0.00 0.00 0.00 0.00 0.00 0.00 0.00 0.00 0.00 0.01 0.01 0.02 0.01 0.00 0.01 0.01 0.01 0.01 0.01 0.01 0.01 0.01 0.00 0.00 0.00 0.00 0.00 0.00
0.00 0.00 0.00 0.00 0.00 0.00 0.00 0.00 0.00 0.00 0.00 0.00 0.00 0.00 0.00 0.00 0.00 0.00 0.00 0.00 0.00 0.00 0.00 0.00 0.00 0.00 0.00 0.00 0.00 0.00 0.01 0.01 0.01 0.01 0.01 0.01 0.01 0.01 0.01 0.00 0.01 0.01 0.01 0.00 0.00 0.00 0.00 0.00 0.00
0.00 0.00 0.00 0.00 0.00 0.00 0.00 0.00 0.00 0.00 0.00 0.00 0.00 0.00 0.00 0.00 0.00 0.00 0.00 0.00 0.00 0.00 0.00 0.00 0.00 0.00 0.00 0.01 0.01 0.00 0.01 0.01 0.01 0.01 0.00 0.00 0.01 0.01 0.01 0.00 0.00 0.00 0.01 0.01 0.00 0.00 0.00 0.00 0.00
0.00 0.00 0.00 0.00 0.00 0.00 0.00 0.00 0.00 0.00 0.00 0.00 0.00 0.00 0.00 0.00 0.00 0.00 0.00 0.00 0.00 0.00 0.01 0.00 0.00 0.00 0.00 0.01 0.01 0.01 0.01 0.01 0.00 0.00 0.00 0.00 0.00 0.01 0.00 0.00 0.00 0.00 0.00 0.00 0.00 0.00 0.00 0.00 0.00
0.00 0.00 0.00 0.00 0.00 0.00 0.00 0.00 0.00 0.00 0.00 0.00 0.00 0.00 0.00 0.00 0.00 0.00 0.00 0.00 0.00 0.00 0.00 0.00 0.00 0.00 0.00 0.00 0.00 0.01 0.01 0.01 0.01 0.00 0.00 0.00 0.00 0.00 0.00 0.00 0.00 0.00 0.00 0.00 0.00 0.00 0.00 0.00 0.00
0.01 0.01 0.01 0.00 0.00 0.00 0.00 0.00 0.00 0.00 0.00 0.00 0.00 0.00 0.00 0.00 0.00 0.00 0.00 0.00 0.00 0.00 0.00 0.00 0.00 0.00 0.00 0.00 0.00 0.00 0.01 0.01 0.01 0.00 0.00 0.00 0.00 0.00 0.00 0.00 0.00 0.00 0.00 0.00 0.00 0.00 0.00 0.00 0.00
0.01 0.01 0.01 0.00 0.00 0.00 0.00 0.00 0.00 0.00 0.00 0.00 0.00 0.00 0.00 0.00 0.00 0.00 0.00 0.00 0.00 0.00 0.00 0.00 0.00 0.00 0.00 0.00 0.00 0.00 0.00 0.00 0.00 0.00 0.00 0.00 0.00 0.00 0.00 0.00 0.00 0.00 0.00 0.00 0.00 0.00 0.00 0.00 0.00
0.02 0.02 0.01 0.00 0.00 0.00 0.00 0.00 0.00 0.00 0.00 0.00 0.00 0.00 0.00 0.00 0.00 0.00 0.00 0.00 0.00 0.00 0.00 0.00 0.00 0.00 0.01 0.01 0.00 0.00 0.00 0.00 0.00 0.00 0.00 0.00 0.00 0.00 0.00 0.00 0.00 0.00 0.00 0.00 0.00 0.00 0.00 0.00 0.00
0.04 0.04 0.01 0.00 0.00 0.00 0.00 0.00 0.00 0.00 0.00 0.00 0.00 0.00 0.00 0.00 0.00 0.00 0.00 0.00 0.00 0.00 0.00 0.00 0.00 0.00 0.01 0.00 0.00 0.00 0.00 0.00 0.00 0.01 0.00 0.00 0.00 0.01 0.00 0.00 0.00 0.00 0.00 0.00 0.00 0.00 0.00 0.00 0.00
0.03 0.02 0.01 0.01 0.00 0.00 0.00 0.00 0.00 0.00 0.00 0.00 0.00 0.00 0.00 0.00 0.00 0.00 0.00 0.00 0.00 0.00 0.00 0.00 0.00 0.00 0.00 0.00 0.00 0.00 0.00 0.01 0.01 0.01 0.01 0.01 0.01 0.01 0.01 0.00 0.00 0.00 0.00 0.00 0.00 0.00 0.00 0.00 0.00
0.03 0.01 0.01 0.01 0.00 0.00 0.00 0.00 0.00 0.00 0.00 0.00 0.00 0.00 0.00 0.00 0.00 0.00 0.00 0.00 0.00 0.00 0.00 0.00 0.00 0.00 0.00 0.00 0.00 0.00 0.00 0.00 0.00 0.00 0.01 0.01 0.01 0.01 0.01 0.01 0.00 0.00 0.00 0.00 0.00 0.00 0.00 0.00 0.00
0.03 0.02 0.01 0.01 0.01 0.01 0.00 0.00 0.00 0.00 0.00 0.00 0.00 0.00 0.00 0.00 0.00 0.00 0.00 0.00 0.00 0.00 0.00 0.00 0.00 0.00 0.00 0.00 0.00 0.00 0.00 0.00 0.00 0.00 0.00 0.00 0.00 0.00 0.00 0.00 0.00 0.00 0.00 0.00 0.00 0.00 0.00 0.00 0.00
0.02 0.02 0.01 0.01 0.01 0.01 0.00 0.00 0.00 0.00 0.00 0.00 0.00 0.00 0.00 0.00 0.00 0.00 0.00 0.00 0.00 0.00 0.00 0.00 0.00 0.00 0.00 0.00 0.00 0.00 0.00 0.00 0.00 0.00 0.00 0.00 0.00 0.00 0.00 0.00 0.00 0.00 0.00 0.00 0.00 0.00 0.00 0.00 0.00
0.02 0.03 0.02 0.02 0.01 0.01 0.01 0.00 0.00 0.00 0.00 0.00 0.00 0.00 0.00 0.00 0.00 0.00 0.00 0.00 0.00 0.00 0.00 0.00 0.00 0.00 0.00 0.00 0.00 0.00 0.00 0.00 0.00 0.00 0.00 0.00 0.00 0.00 0.00 0.00 0.00 0.00 0.00 0.00 0.00 0.00 0.00 0.00 0.00
0.03 0.04 0.03 0.01 0.01 0.01 0.01 0.01 0.00 0.00 0.00 0.00 0.00 0.00 0.00 0.00 0.00 0.00 0.00 0.00 0.00 0.00 0.00 0.00 0.00 0.00 0.00 0.00 0.00 0.00 0.00 0.00 0.00 0.00 0.00 0.00 0.00 0.00 0.00 0.00 0.00 0.00 0.00 0.00 0.00 0.00 0.00 0.00 0.00
0.05 0.03 0.02 0.01 0.01 0.01 0.02 0.01 0.00 0.00 0.00 0.00 0.00 0.00 0.00 0.00 0.00 0.00 0.00 0.00 0.00 0.00 0.00 0.00 0.00 0.00 0.00 0.00 0.00 0.00 0.00 0.00 0.00 0.00 0.00 0.00 0.00 0.00 0.00 0.00 0.00 0.00 0.00 0.00 0.00 0.00 0.00 0.00 0.00
0.03 0.02 0.01 0.01 0.01 0.01 0.01 0.01 0.00 0.00 0.00 0.00 0.00 0.00 0.00 0.00 0.00 0.00 0.00 0.00 0.00 0.00 0.00 0.00 0.00 0.00 0.00 0.00 0.00 0.00 0.00 0.00 0.00 0.00 0.00 0.00 0.00 0.00 0.00 0.01 0.01 0.00 0.00 0.00 0.00 0.00 0.00 0.00 0.00
0.02 0.01 0.01 0.01 0.01 0.02 0.01 0.01 0.00 0.00 0.00 0.00 0.00 0.00 0.00 0.00 0.00 0.00 0.00 0.00 0.00 0.01 0.01 0.00 0.00 0.00 0.00 0.00 0.00 0.00 0.00 0.00 0.00 0.00 0.00 0.00 0.00 0.00 0.00 0.00 0.00 0.00 0.00 0.00 0.00 0.00 0.01 0.00 0.00
0.03 0.02 0.01 0.01 0.01 0.02 0.02 0.01 0.00 0.00 0.00 0.00 0.00 0.00 0.00 0.00 0.00 0.00 0.00 0.00 0.00 0.00 0.01 0.01 0.00 0.00 0.00 0.00 0.00 0.00 0.00 0.00 0.00 0.00 0.00 0.00 0.00 0.00 0.00 0.00 0.00 0.00 0.00 0.01 0.01 0.01 0.01 0.01 0.01
0.03 0.02 0.01 0.01 0.02 0.02 0.02 0.01 0.00 0.00 0.00 0.00 0.00 0.00 0.00 0.00 0.00 0.00 0.00 0.00 0.00 0.00 0.00 0.01 0.01 0.00 0.00 0.00 0.00 0.00 0.00 0.00 0.00 0.00 0.00 0.00 0.00 0.00 0.00 0.00 0.00 0.01 0.01 0.01 0.01 0.01 0.01 0.01 0.01
0.02 0.01 0.01 0.02 0.03 0.03 0.03 0.02 0.00 0.00 0.00 0.00 0.00 0.00 0.00 0.00 0.00 0.00 0.00 0.00 0.00 0.00 0.00 0.00 0.01 0.01 0.00 0.00 0.00 0.00 0.00 0.00 0.00 0.00 0.00 0.00 0.00 0.00 0.00 0.00 0.00 0.01 0.01 0.01 0.01 0.01 0.01 0.01 0.01
0.02 0.02 0.02 0.03 0.05 0.05 0.03 0.02 0.01 0.00 0.00 0.00 0.00 0.00 0.00 0.00 0.00 0.00 0.00 0.00 0.00 0.00 0.00 0.00 0.00 0.01 0.01 0.01 0.00 0.00 0.00 0.00 0.00 0.00 0.00 0.00 0.00 0.00 0.00 0.00 0.00 0.01 0.01 0.01 0.01 0.01 0.01 0.02 0.02
0.04 0.04 0.04 0.05 0.09 0.10 0.04 0.03 0.01 0.00 0.00 0.00 0.00 0.00 0.00 0.00 0.00 0.00 0.00 0.00 0.00 0.00 0.00 0.00 0.00 0.00 0.01 0.01 0.01 0.00 0.00 0.00 0.00 0.00 0.00 0.00 0.00 0.00 0.00 0.00 0.00 0.00 0.01 0.01 0.01 0.01 0.01 0.01 0.01
0.04 0.07 0.11 0.11 0.11 0.06 0.01 0.01 0.01 0.00 0.00 0.00 0.00 0.00 0.00 0.00 0.00 0.00 0.00 0.00 0.00 0.00 0.00 0.00 0.00 0.00 0.00 0.00 0.01 0.01 0.00 0.00 0.00 0.00 0.00 0.00 0.00 0.00 0.00 0.00 0.00 0.00 0.01 0.01 0.01 0.01 0.01 0.01 0.01
0.04 0.05 0.07 0.06 0.03 0.01 0.00 0.00 0.00 0.00 0.00 0.00 0.00 0.00 0.00 0.00 0.00 0.00 0.00 0.00 0.00 0.00 0.00 0.00 0.00 0.00 0.00 0.00 0.00 0.00 0.00 0.00 0.00 0.00 0.00 0.00 0.00 0.00 0.00 0.00 0.00 0.00 0.00 0.00 0.01 0.01 0.01 0.01 0.01
0.04 0.05 0.03 0.06 0.04 0.02 0.01 0.00 0.00 0.00 0.00 0.00 0.00 0.00 0.00 0.00 0.00 0.00 0.00 0.00 0.00 0.00 0.00 0.00 0.00 0.00 0.00 0.00 0.00 0.00 0.00 0.00 0.00 0.00 0.00 0.00 0.00 0.00 0.00 0.00 0.00 0.00 0.00 0.00 0.01 0.01 0.01 0.01 0.01
0.02 0.03 0.06 0.11 0.10 0.05 0.01 0.00 0.00 0.00 0.00 0.00 0.00 0.00 0.00 0.00 0.00 0.00 0.00 0.00 0.00 0.00 0.00 0.00 0.00 0.00 0.00 0.00 0.00 0.00 0.00 0.00 0.00 0.00 0.00 0.00 0.00 0.00 0.00 0.00 0.00 0.00 0.00 0.00 0.01 0.01 0.01 0.01 0.02
0.02 0.04 0.06 0.08 0.08 0.05 0.03 0.01 0.00 0.00 0.00 0.00 0.00 0.00 0.00 0.00 0.00 0.00 0.00 0.00 0.00 0.00 0.00 0.00 0.00 0.00 0.00 0.00 0.00 0.00 0.00 0.00 0.00 0.00 0.00 0.00 0.00 0.00 0.00 0.00 0.00 0.00 0.00 0.00 0.01 0.01 0.01 0.01 0.01
0.03 0.03 0.04 0.07 0.05 0.03 0.02 0.01 0.00 0.00 0.00 0.00 0.00 0.00 0.00 0.00 0.00 0.00 0.00 0.00 0.00 0.00 0.00 0.00 0.00 0.00 0.00 0.00 0.00 0.00 0.00 0.00 0.00 0.00 0.00 0.00 0.00 0.00 0.00 0.00 0.00 0.00 0.00 0.00 0.01 0.01 0.01 0.01 0.01
MSLP
1011.61 1011.75 1012.09 1012.54 1013.02 1013.43 1013.73 1013.88 1013.91 1013.86 1013.78 1013.75 1013.80 1013.95 1014.17 1014.44 1014.71 1014.96 1015.16 1015.35 1015.54 1015.76 1016.06 1016.44 1016.88 1017.34 1017.78 1018.15 1018.42 1018.60 1018.71 1018.79 1018.90 1019.07 1019.31 1019.63 1019.99 1020.35 1020.66 1020.88 1021.02 1021.08 1021.10 1021.10 1021.13 1021.19 1021.29 1021.41 1021.54
1011.91 1012.06 1012.38 1012.78 1013.17 1013.50 1013.69 1013.76 1013.71 1013.61 1013.52 1013.48 1013.54 1013.70 1013.93 1014.20 1014.48 1014.72 1014.94 1015.15 1015.38 1015.66 1016.03 1016.47 1016.96 1017.46 1017.92 1018.30 1018.57 1018.75 1018.86 1018.95 1019.07 1019.27 1019.54 1019.89 1020.26 1020.63 1020.94 1021.16 1021.30 1021.36 1021.38 1021.40 1021.43 1021.50 1021.59 1021.70 1021.80
1012.40 1012.51 1012.76 1013.05 1013.31 1013.49 1013.55 1013.50 1013.38 1013.25 1013.15 1013.14 1013.24 1013.44 1013.70 1013.99 1014.27 1014.53 1014.76 1014.98 1015.24 1015.57 1015.98 1016.48 1017.02 1017.56 1018.05 1018.45 1018.74 1018.93 1019.05 1019.16 1019.30 1019.51 1019.79 1020.14 1020.50 1020.85 1021.15 1021.36 1021.50 1021.58 1021.63 1021.67 1021.74 1021.82 1021.93 1022.02 1022.09
1013.04 1013.10 1013.24 1013.37 1013.46 1013.46 1013.36 1013.19 1012.99 1012.82 1012.74 1012.78 1012.94 1013.19 1013.50 1013.82 1014.12 1014.38 1014.62 1014.86 1015.14 1015.49 1015.94 1016.47 1017.05 1017.63 1018.15 1018.58 1018.90 1019.12 1019.27 1019.40 1019.56 1019.77 1020.05 1020.37 1020.70 1021.02 1021.30 1021.51 1021.66 1021.77 1021.86 1021.96 1022.08 1022.20 1022.32 1022.41 1022.45
1013.80 1013.79 1013.80 1013.76 1013.65 1013.45 1013.18 1012.88 1012.60 1012.42 1012.36 1012.45 1012.68 1013.00 1013.36 1013.73 1014.05 1014.32 1014.56 1014.80 1015.09 1015.45 1015.91 1016.46 1017.07 1017.67 1018.22 1018.67 1019.03 1019.28 1019.47 1019.63 1019.80 1020.01 1020.27 1020.57 1020.87 1021.16 1021.41 1021.62 1021.79 1021.94 1022.10 1022.26 1022.44 1022.61 1022.75 1022.84 1022.86
1014.59 1014.52 1014.39 1014.19 1013.88 1013.50 1013.06 1012.64 1012.30 1012.10 1012.08 1012.22 1012.52 1012.90 1013.33 1013.73 1014.07 1014.35 1014.58 1014.82 1015.10 1015.46 1015.92 1016.47 1017.07 1017.68 1018.24 1018.71 1019.09 1019.38 1019.59 1019.78 1019.98 1020.20 1020.46 1020.73 1021.00 1021.27 1021.50 1021.71 1021.91 1022.11 1022.32 1022.55 1022.79 1023.00 1023.17 1023.26 1023.26
1015.32 1015.19 1014.97 1014.62 1014.15 1013.60 1013.03 1012.52 1012.13 1011.92 1011.93 1012.13 1012.48 1012.93 1013.39 1013.82 1014.18 1014.46 1014.70 1014.92 1015.18 1015.53 1015.97 1016.49 1017.07 1017.65 1018.20 1018.67 1019.06 1019.37 1019.62 1019.84 1020.07 1020.31 1020.57 1020.83 1021.10 1021.35 1021.58 1021.79 1022.01 1022.25 1022.50 1022.78 1023.06 1023.30 1023.48 1023.57 1023.56
1015.90 1015.75 1015.45 1014.99 1014.41 1013.74 1013.08 1012.50 1012.08 1011.88 1011.91 1012.16 1012.55 1013.04 1013.54 1013.98 1014.35 1014.63 1014.86 1015.07 1015.31 1015.63 1016.03 1016.52 1017.05 1017.59 1018.10 1018.55 1018.93 1019.25 1019.52 1019.78 1020.04 1020.31 1020.60 1020.88 1021.15 1021.40 1021.63 1021.85 1022.08 1022.33 1022.60 1022.90 1023.19 1023.44 1023.62 1023.71 1023.69
1016.31 1016.15 1015.80 1015.28 1014.62 1013.89 1013.18 1012.57 1012.15 1011.96 1012.01 1012.28 1012.70 1013.19 1013.70 1014.15 1014.51 1014.79 1015.00 1015.20 1015.43 1015.72 1016.09 1016.52 1017.00 1017.48 1017.94 1018.35 1018.71 1019.02 1019.31 1019.60 1019.90 1020.22 1020.54 1020.85 1021.14 1021.41 1021.64 1021.86 1022.08 1022.33 1022.59 1022.87 1023.15 1023.38 1023.55 1023.63 1023.62
1016.51 1016.35 1015.98 1015.44 1014.75 1014.01 1013.29 1012.68 1012.27 1012.09 1012.15 1012.42 1012.83 1013.32 1013.80 1014.23 1014.58 1014.85 1015.06 1015.26 1015.48 1015.75 1016.09 1016.49 1016.91 1017.34 1017.74 1018.10 1018.42 1018.72 1019.02 1019.33 1019.66 1020.02 1020.38 1020.74 1021.06 1021.34 1021.59 1021.80 1022.01 1022.22 1022.46 1022.70 1022.94 1023.14 1023.29 1023.36 1023.35
1016.52 1016.36 1016.00 1015.45 1014.78 1014.06 1013.37 1012.79 1012.40 1012.23 1012.29 1012.53 1012.91 1013.34 1013.78 1014.17 1014.48 1014.73 1014.94 1015.15 1015.38 1015.66 1015.99 1016.37 1016.76 1017.14 1017.49 1017.81 1018.10 1018.38 1018.66 1018.98 1019.34 1019.73 1020.13 1020.52 1020.88 1021.18 1021.44 1021.65 1021.84 1022.02 1022.21 1022.41 1022.60 1022.78 1022.90 1022.97 1022.97
1016.37 1016.20 1015.85 1015.34 1014.71 1014.04 1013.40 1012.87 1012.50 1012.34 1012.37 1012.56 1012.86 1013.22 1013.58 1013.90 1014.18 1014.40 1014.62 1014.84 1015.10 1015.40 1015.76 1016.14 1016.53 1016.89 1017.21 1017.50 1017.76 1018.01 1018.28 1018.59 1018.96 1019.36 1019.79 1020.21 1020.59 1020.92 1021.19 1021.40 1021.58 1021.74 1021.89 1022.05 1022.21 1022.35 1022.47 1022.54 1022.56
1016.10 1015.91 1015.58 1015.11 1014.54 1013.94 1013.38 1012.90 1012.57 1012.39 1012.38 1012.50 1012.70 1012.96 1013.21 1013.45 1013.66 1013.86 1014.07 1014.31 1014.61 1014.96 1015.36 1015.78 1016.19 1016.57 1016.89 1017.17 1017.41 1017.63 1017.88 1018.18 1018.53 1018.92 1019.35 1019.78 1020.18 1020.54 1020.82 1021.05 1021.23 1021.38 1021.52 1021.67 1021.81 1021.95 1022.06 1022.14 1022.19
1015.73 1015.53 1015.22 1014.81 1014.33 1013.82 1013.33 1012.92 1012.61 1012.42 1012.34 1012.37 1012.46 1012.58 1012.72 1012.86 1012.99 1013.15 1013.35 1013.61 1013.94 1014.35 1014.81 1015.29 1015.75 1016.16 1016.52 1016.80 1017.04 1017.25 1017.48 1017.74 1018.06 1018.43 1018.84 1019.26 1019.67 1020.04 1020.35 1020.60 1020.80 1020.98 1021.13 1021.29 1021.44 1021.59 1021.73 1021.84 1021.91
1015.31 1015.11 1014.84 1014.50 1014.11 1013.70 1013.30 1012.94 1012.65 1012.43 1012.29 1012.21 1012.18 1012.17 1012.18 1012.21 1012.26 1012.37 1012.54 1012.81 1013.17 1013.62 1014.13 1014.67 1015.19 1015.66 1016.06 1016.38 1016.63 1016.84 1017.04 1017.27 1017.55 1017.88 1018.26 1018.66 1019.07 1019.44 1019.78 1020.07 1020.31 1020.53 1020.72 1020.92 1021.11 1021.29 1021.47 1021.61 1021.71
1014.87 1014.69 1014.47 1014.22 1013.94 1013.63 1013.32 1013.01 1012.73 1012.48 1012.26 1012.08 1011.92 1011.79 1011.68 1011.60 1011.57 1011.61 1011.75 1012.00 1012.36 1012.83 1013.37 1013.95 1014.53 1015.05 1015.50 1015.86 1016.15 1016.37 1016.57 1016.77 1017.01 1017.30 1017.64 1018.01 1018.40 1018.79 1019.15 1019.47 1019.77 1020.03 1020.28 1020.53 1020.77 1021.00 1021.21 1021.39 1021.52
1014.46 1014.32 1014.18 1014.03 1013.86 1013.65 1013.41 1013.14 1012.86 1012.57 1012.28 1011.99 1011.73 1011.48 1011.26 1011.09 1010.99 1010.97 1011.05 1011.26 1011.59 1012.04 1012.58 1013.17 1013.78 1014.34 1014.84 1015.25 1015.58 1015.83 1016.03 1016.23 1016.45 1016.70 1017.00 1017.34 1017.71 1018.10 1018.47 1018.83 1019.17 1019.48 1019.79 1020.08 1020.37 1020.65 1020.90 1021.12 1021.27
1014.11 1014.04 1014.00 1013.95 1013.88 1013.76 1013.58 1013.33 1013.02 1012.68 1012.31 1011.94 1011.58 1011.24 1010.95 1010.71 1010.54 1010.46 1010.49 1010.63 1010.91 1011.30 1011.80 1012.36 1012.96 1013.54 1014.07 1014.52 1014.90 1015.19 1015.43 1015.64 1015.85 1016.08 1016.35 1016.67 1017.02 1017.40 1017.78 1018.16 1018.53 1018.88 1019.22 1019.55 1019.87 1020.19 1020.48 1020.72 1020.91
1013.86 1013.88 1013.94 1014.00 1014.02 1013.96 1013.80 1013.54 1013.19 1012.77 1012.32 1011.86 1011.42 1011.03 1010.68 1010.41 1010.20 1010.08 1010.05 1010.13 1010.33 1010.64 1011.06 1011.56 1012.11 1012.67 1013.21 1013.70 1014.12 1014.46 1014.74 1014.98 1015.21 1015.44 1015.70 1016.01 1016.34 1016.71 1017.09 1017.47 1017.85 1018.21 1018.57 1018.92 1019.26 1019.59 1019.90 1020.18 1020.40
1013.72 1013.84 1014.00 1014.16 1014.24 1014.21 1014.04 1013.73 1013.31 1012.79 1012.25 1011.71 1011.21 1010.77 1010.41 1010.13 1009.91 1009.78 1009.71 1009.74 1009.85 1010.06 1010.37 1010.78 1011.26 1011.78 1012.30 1012.80 1013.26 1013.65 1013.98 1014.27 1014.52 1014.78 1015.04 1015.34 1015.66 1016.02 1016.38 1016.76 1017.13 1017.49 1017.84 1018.19 1018.53 1018.86 1019.19 1019.49 1019.74
1013.70 1013.91 1014.17 1014.39 1014.50 1014.47 1014.25 1013.86 1013.32 1012.70 1012.04 1011.42 1010.87 1010.41 1010.06 1009.80 1009.61 1009.49 1009.42 1009.40 1009.44 1009.56 1009.76 1010.06 1010.44 1010.89 1011.38 1011.87 1012.34 1012.77 1013.15 1013.48 1013.77 1014.05 1014.33 1014.63 1014.95 1015.29 1015.65 1016.01 1016.37 1016.71 1017.05 1017.38 1017.70 1018.03 1018.36 1018.68 1018.97
1013.76 1014.06 1014.38 1014.64 1014.76 1014.69 1014.39 1013.89 1013.22 1012.46 1011.69 1010.98 1010.38 1009.92 1009.59 1009.38 1009.25 1009.17 1009.11 1009.08 1009.08 1009.12 1009.23 1009.42 1009.70 1010.07 1010.49 1010.95 1011.42 1011.86 1012.26 1012.61 1012.93 1013.23 1013.52 1013.83 1014.15 1014.49 1014.84 1015.20 1015.54 1015.88 1016.19 1016.50 1016.81 1017.13 1017.46 1017.80 1018.13
1013.87 1014.23 1014.60 1014.88 1014.98 1014.84 1014.45 1013.82 1013.02 1012.13 1011.24 1010.45 1009.80 1009.33 1009.04 1008.88 1008.82 1008.80 1008.79 1008.78 1008.76 1008.75 1008.78 1008.88 1009.07 1009.34 1009.68 1010.08 1010.50 1010.92 1011.31 1011.66 1011.98 1012.28 1012.58 1012.89 1013.21 1013.56 1013.92 1014.28 1014.62 1014.96 1015.27 1015.57 1015.87 1016.18 1016.51 1016.86 1017.23
1013.97 1014.38 1014.78 1015.06 1015.13 1014.93 1014.44 1013.70 1012.77 1011.75 1010.76 1009.89 1009.20 1008.73 1008.46 1008.36 1008.36 1008.42 1008.47 1008.49 1008.48 1008.45 1008.43 1008.45 1008.55 1008.72 1008.98 1009.29 1009.63 1009.98 1010.32 1010.63 1010.91 1011.19 1011.47 1011.77 1012.10 1012.45 1012.83 1013.21 1013.58 1013.93 1014.26 1014.57 1014.87 1015.18 1015.51 1015.88 1016.27
1014.06 1014.49 1014.90 1015.17 1015.21 1014.95 1014.39 1013.56 1012.53 1011.42 1010.35 1009.42 1008.70 1008.21 1007.96 1007.90 1007.96 1008.07 1008.18 1008.24 1008.25 1008.22 1008.17 1008.13 1008.15 1008.23 1008.38 1008.58 1008.81 1009.06 1009.30 1009.52 1009.74 1009.96 1010.20 1010.48 1010.80 1011.16 1011.56 1011.98 1012.39 1012.78 1013.14 1013.48 1013.79 1014.11 1014.45 1014.81 1015.21
1014.14 1014.57 1014.97 1015.22 1015.23 1014.94 1014.33 1013.44 1012.36 1011.20 1010.08 1009.11 1008.37 1007.87 1007.63 1007.58 1007.67 1007.82 1007.96 1008.05 1008.08 1008.04 1007.97 1007.90 1007.84 1007.84 1007.87 1007.95 1008.06 1008.17 1008.28 1008.39 1008.50 1008.63 1008.81 1009.04 1009.35 1009.72 1010.14 1010.60 1011.06 1011.50 1011.91 1012.28 1012.62 1012.95 1013.28 1013.64 1014.04
1014.24 1014.65 1015.02 1015.23 1015.21 1014.89 1014.26 1013.36 1012.27 1011.11 1009.98 1009.01 1008.25 1007.75 1007.49 1007.44 1007.52 1007.67 1007.81 1007.91 1007.94 1007.90 1007.81 1007.70 1007.58 1007.50 1007.43 1007.39 1007.36 1007.33 1007.29 1007.26 1007.25 1007.28 1007.37 1007.55 1007.82 1008.19 1008.63 1009.12 1009.63 1010.12 1010.57 1010.98 1011.35 1011.69 1012.02 1012.37 1012.75
1014.42 1014.77 1015.07 1015.23 1015.17 1014.82 1014.18 1013.30 1012.24 1011.10 1010.01 1009.06 1008.31 1007.80 1007.52 1007.43 1007.48 1007.59 1007.70 1007.77 1007.77 1007.71 1007.60 1007.46 1007.30 1007.15 1007.00 1006.85 1006.70 1006.54 1006.38 1006.21 1006.08 1006.00 1006.00 1006.11 1006.34 1006.69 1007.13 1007.64 1008.17 1008.69 1009.18 1009.62 1010.01 1010.36 1010.69 1011.03 1011.39
1014.72 1014.96 1015.16 1015.22 1015.08 1014.68 1014.03 1013.17 1012.16 1011.09 1010.06 1009.16 1008.44 1007.93 1007.62 1007.47 1007.45 1007.48 1007.52 1007.53 1007.48 1007.39 1007.25 1007.08 1006.90 1006.71 1006.52 1006.31 1006.08 1005.83 1005.57 1005.30 1005.06 1004.89 1004.81 1004.86 1005.03 1005.34 1005.75 1006.25 1006.78 1007.31 1007.82 1008.27 1008.67 1009.03 1009.37 1009.71 1010.07
1015.13 1015.23 1015.27 1015.17 1014.90 1014.42 1013.74 1012.90 1011.94 1010.94 1010.00 1009.16 1008.48 1007.97 1007.62 1007.42 1007.30 1007.23 1007.17 1007.09 1006.98 1006.83 1006.67 1006.49 1006.31 1006.13 1005.93 1005.71 1005.46 1005.18 1004.87 1004.56 1004.26 1004.03 1003.89 1003.87 1003.99 1004.24 1004.61 1005.07 1005.57 1006.09 1006.58 1007.03 1007.43 1007.81 1008.16 1008.52 1008.91
Thickness
5740 5750 5754 5747 5728 5720 5718 5729 5738 5735 5738 5743 5745 5743 5737 5728 5718 5706 5724 5734 5730 5723 5716 5712 5709 5706 5704 5702 5700 5698 5697 5696 5695 5695 5694 5693 5693 5692 5692 5691 5691 5690 5690 5690 5689 5689 5688 5688 5688
5737 5746 5744 5734 5717 5706 5715 5731 5732 5735 5739 5743 5743 5742 5737 5728 5728 5725 5728 5731 5728 5722 5716 5712 5708 5706 5703 5701 5699 5698 5696 5695 5694 5694 5693 5692 5691 5691 5690 5690 5689 5689 5688 5688 5687 5687 5686 5686 5686
5737 5743 5729 5722 5715 5712 5717 5732 5735 5737 5741 5741 5737 5740 5736 5727 5729 5728 5730 5731 5726 5721 5716 5711 5707 5705 5702 5700 5698 5697 5695 5694 5693 5692 5691 5691 5690 5689 5688 5688 5687 5687 5687 5686 5685 5685 5684 5684 5683
5729 5728 5725 5713 5710 5725 5730 5735 5737 5733 5736 5740 5738 5731 5731 5734 5734 5733 5732 5730 5725 5720 5715 5710 5707 5704 5702 5699 5697 5696 5694 5693 5692 5691 5690 5689 5689 5688 5687 5686 5686 5685 5685 5684 5684 5683 5682 5681 5681
5722 5713 5703 5701 5711 5727 5736 5740 5739 5731 5730 5735 5736 5727 5721 5730 5735 5733 5730 5728 5723 5719 5714 5708 5706 5703 5701 5699 5697 5695 5694 5692 5691 5690 5689 5688 5687 5686 5686 5685 5684 5684 5683 5683 5682 5681 5680 5679 5679
5702 5704 5690 5691 5707 5723 5732 5738 5736 5732 5732 5734 5733 5726 5719 5729 5730 5729 5728 5726 5723 5718 5713 5707 5704 5702 5700 5698 5696 5694 5693 5691 5690 5689 5688 5687 5686 5685 5684 5684 5683 5682 5682 5681 5680 5679 5678 5678 5677
5688 5686 5685 5694 5702 5712 5725 5734 5731 5729 5728 5732 5736 5725 5718 5724 5727 5728 5727 5725 5721 5717 5712 5707 5703 5701 5699 5697 5695 5693 5692 5690 5689 5688 5687 5686 5685 5684 5683 5682 5681 5681 5680 5679 5678 5678 5677 5676 5676
5687 5682 5683 5691 5696 5705 5723 5728 5731 5729 5727 5737 5737 5724 5716 5722 5727 5726 5724 5722 5719 5715 5711 5707 5704 5701 5698 5696 5694 5693 5691 5690 5688 5687 5686 5685 5684 5683 5682 5681 5680 5679 5678 5678 5677 5676 5675 5675 5674
5680 5668 5672 5688 5695 5704 5717 5718 5724 5730 5728 5729 5729 5724 5727 5726 5724 5719 5716 5715 5714 5712 5711 5708 5705 5702 5699 5697 5694 5692 5690 5689 5688 5686 5685 5684 5683 5683 5682 5681 5680 5679 5678 5676 5675 5675 5674 5673 5673
5666 5658 5674 5693 5700 5703 5710 5712 5715 5715 5714 5716 5716 5717 5721 5719 5716 5713 5710 5709 5709 5708 5709 5708 5706 5703 5700 5698 5694 5692 5690 5689 5688 5686 5685 5684 5684 5683 5682 5681 5679 5678 5677 5676 5674 5674 5673 5672 5672
5661 5661 5676 5687 5694 5698 5700 5705 5712 5707 5704 5713 5712 5711 5713 5712 5711 5710 5709 5710 5709 5709 5708 5708 5706 5703 5701 5698 5695 5693 5691 5690 5688 5687 5686 5685 5684 5683 5682 5680 5679 5677 5676 5675 5674 5673 5672 5672 5671
5653 5663 5672 5677 5682 5686 5690 5696 5700 5702 5707 5718 5721 5718 5712 5708 5708 5709 5709 5710 5710 5708 5708 5707 5706 5703 5701 5698 5696 5694 5693 5691 5690 5688 5687 5685 5684 5683 5682 5681 5679 5677 5676 5675 5674 5673 5672 5672 5671
5643 5653 5664 5669 5672 5675 5680 5683 5689 5697 5707 5713 5715 5713 5709 5708 5708 5709 5711 5710 5709 5707 5707 5706 5705 5703 5701 5698 5697 5695 5693 5692 5690 5689 5687 5686 5684 5683 5682 5681 5679 5678 5676 5675 5674 5673 5672 5671 5671
5636 5643 5651 5657 5661 5666 5666 5672 5678 5690 5701 5702 5704 5704 5706 5707 5708 5708 5708 5708 5708 5707 5707 5706 5704 5703 5701 5698 5696 5695 5693 5692 5690 5689 5687 5686 5684 5683 5682 5680 5679 5677 5676 5675 5673 5672 5671 5670 5669
5625 5627 5634 5645 5651 5656 5657 5656 5670 5686 5692 5693 5696 5699 5702 5705 5707 5707 5709 5708 5708 5707 5707 5705 5704 5702 5700 5698 5696 5695 5693 5692 5690 5689 5687 5685 5684 5683 5681 5680 5678 5677 5675 5673 5672 5670 5669 5668 5667
5609 5609 5614 5636 5643 5647 5640 5643 5670 5683 5683 5684 5689 5694 5697 5701 5705 5708 5709 5709 5709 5707 5706 5704 5703 5701 5699 5697 5696 5694 5693 5691 5690 5688 5687 5685 5683 5682 5680 5679 5677 5676 5674 5672 5670 5668 5667 5665 5664
5592 5596 5608 5624 5637 5639 5633 5640 5664 5677 5678 5678 5683 5688 5692 5697 5702 5706 5708 5708 5708 5707 5705 5702 5701 5699 5697 5696 5694 5693 5691 5690 5689 5687 5686 5684 5682 5681 5679 5677 5676 5674 5672 5670 5668 5666 5664 5662 5661
5585 5594 5604 5613 5627 5629 5628 5636 5654 5664 5668 5671 5677 5682 5687 5691 5698 5703 5705 5706 5705 5705 5703 5701 5699 5697 5695 5693 5691 5690 5689 5688 5687 5686 5685 5683 5681 5679 5677 5675 5674 5672 5670 5668 5666 5663 5661 5659 5658
5585 5589 5595 5608 5620 5617 5619 5628 5640 5652 5656 5661 5668 5674 5680 5687 5695 5699 5701 5702 5701 5700 5699 5698 5696 5694 5692 5690 5688 5686 5686 5686 5685 5685 5683 5682 5679 5677 5675 5673 5671 5669 5667 5665 5663 5660 5657 5655 5653
5567 5572 5582 5595 5604 5604 5607 5616 5632 5642 5648 5656 5662 5668 5674 5680 5686 5691 5694 5695 5695 5695 5694 5693 5693 5692 5690 5689 5688 5686 5684 5683 5683 5682 5681 5679 5677 5674 5672 5670 5668 5666 5664 5662 5659 5656 5653 5651 5648
5556 5563 5571 5578 5587 5590 5589 5598 5617 5634 5644 5652 5660 5665 5670 5673 5677 5682 5685 5687 5687 5687 5688 5689 5688 5688 5687 5685 5683 5681 5679 5678 5678 5678 5677 5675 5673 5671 5669 5667 5664 5662 5660 5658 5655 5653 5649 5646 5644
5548 5562 5564 5565 5562 5566 5574 5576 5610 5626 5634 5644 5651 5657 5663 5667 5671 5674 5676 5678 5679 5680 5682 5682 5682 5682 5681 5680 5678 5676 5675 5674 5675 5675 5673 5671 5669 5666 5664 5662 5660 5658 5655 5653 5651 5648 5645 5641 5639
5543 5552 5552 5552 5549 5550 5561 5561 5591 5618 5624 5637 5646 5652 5657 5661 5663 5665 5667 5668 5671 5672 5672 5673 5673 5674 5674 5674 5672 5670 5669 5670 5670 5669 5667 5666 5664 5661 5659 5656 5654 5652 5650 5648 5645 5643 5639 5637 5634
5533 5533 5534 5536 5532 5531 5553 5552 5576 5604 5621 5631 5639 5645 5650 5653 5655 5656 5658 5659 5659 5660 5661 5662 5662 5663 5665 5665 5665 5664 5663 5662 5661 5661 5660 5659 5658 5656 5653 5651 5648 5646 5644 5642 5639 5636 5633 5631 5628
5519 5513 5509 5511 5514 5526 5555 5552 5576 5607 5622 5628 5632 5636 5641 5643 5644 5644 5644 5645 5646 5647 5648 5649 5650 5652 5654 5655 5655 5656 5655 5655 5654 5653 5653 5651 5650 5649 5648 5645 5642 5640 5638 5635 5632 5629 5627 5624 5621
5512 5510 5506 5507 5514 5527 5542 5548 5580 5604 5613 5620 5624 5626 5629 5630 5631 5632 5632 5632 5633 5634 5635 5636 5637 5639 5641 5642 5644 5645 5646 5645 5645 5645 5644 5644 5643 5642 5640 5638 5635 5633 5630 5627 5624 5621 5619 5616 5613
5500 5503 5513 5506 5505 5506 5525 5552 5575 5589 5596 5602 5608 5611 5613 5615 5617 5617 5618 5619 5619 5620 5621 5623 5624 5626 5628 5630 5631 5632 5633 5634 5634 5635 5634 5634 5633 5632 5630 5628 5626 5623 5621 5619 5616 5613 5610 5607 5605
5499 5501 5495 5490 5490 5495 5516 5535 5555 5571 5577 5585 5590 5594 5598 5601 5601 5602 5602 5603 5604 5605 5606 5608 5610 5612 5613 5615 5617 5618 5619 5620 5621 5621 5621 5621 5620 5619 5618 5616 5615 5613 5610 5608 5605 5602 5600 5597 5594
5487 5488 5489 5487 5489 5493 5501 5527 5565 5569 5573 5575 5578 5581 5583 5584 5584 5585 5586 5587 5588 5589 5591 5592 5594 5596 5598 5600 5601 5602 5604 5605 5606 5606 5606 5606 5606 5606 5605 5603 5602 5600 5598 5595 5592 5590 5588 5585 5582
5485 5487 5486 5478 5478 5489 5495 5516 5556 5560 5562 5562 5563 5565 5567 5569 5569 5569 5571 5571 5572 5572 5574 5576 5578 5579 5581 5583 5585 5587 5588 5589 5590 5591 5591 5591 5591 5591 5590 5589 5587 5586 5583 5581 5579 5577 5574 5572 5569